Location: ??
(35.4032°N, 139.3073°E)
Time: 03:11:58
(UTC+00:00)

Envisat - Pass Details

Date: 13 April 2024
Orbit: 762 x 764 km, 98.3° (Epoch: 25 May)

Event Time Altitude Azimuth Distance (km) Brightness Sun altitude
Rises 18:24:53 0° 6° (N) 3,234 6.7 -21.2°
Reaches altitude 10° 18:27:14 10° 2° (N) 2,304 5.9 -20.8°
Maximum altitude 18:32:08 52° 287° (WNW) 940 3.1 -19.9°
Enters shadow 18:33:36 39° 238° (WSW) 1,128 3.3 -19.6°
